RH
8 5 8 16 23 35 16 8 4 4 4 4 22 20 12 9 11 12 15 15 14 14 20 24 24 19 18 25 27 34 37 34 36 38 40 44 49 45 27 11 7 5 4
45 46 17 99 74 47 30 11 6 6 4 4 19 26 16 11 14 18 20 16 16 23 25 28 26 19 27 28 33 37 37 41 38 37 44 53 51 31 16 10 6 4 3
56 64 47 38 100 100 100 100 36 31 36 4 11 30 22 14 17 28 21 19 25 28 32 32 25 25 29 33 38 41 43 45 43 39 49 54 37 23 12 7 4 3 3
66 93 84 63 61 99 100 100 100 100 100 40 23 38 28 19 28 33 24 34 34 36 38 32 32 29 35 41 44 46 49 44 45 49 55 41 28 17 9 5 3 3 9
48 62 97 82 66 81 100 99 100 98 100 79 52 39 30 26 41 28 42 45 46 48 39 40 35 34 44 48 50 54 49 45 51 54 47 30 23 11 8 4 3 11 31
48 69 94 90 100 83 93 100 100 98 99 80 47 46 30 41 37 46 53 56 59 48 44 40 40 47 51 54 55 55 47 51 60 55 39 26 10 9 5 3 10 36 63
53 63 82 98 100 96 51 99 100 100 99 92 76 65 48 48 52 58 66 73 58 53 47 44 46 49 55 58 61 56 54 61 60 48 31 10 7 4 3 7 32 65 76
37 54 68 96 98 100 72 94 100 100 98 97 76 70 58 62 64 78 82 72 67 52 49 51 55 57 58 60 60 58 61 65 61 44 11 7 4 3 4 25 50 50 83
41 40 55 95 99 100 98 95 100 100 99 98 87 79 75 65 89 93 89 74 61 57 58 65 70 66 60 59 60 61 68 65 60 29 8 6 3 3 22 44 45 80 100
26 35 44 80 96 100 100 98 100 100 97 99 96 92 73 90 96 96 90 78 72 65 84 81 76 71 63 62 62 64 76 68 51 14 8 5 2 17 41 26 89 100 100
33 30 36 56 100 73 100 92 100 91 100 98 97 87 94 100 98 96 88 87 74 80 90 86 75 74 64 65 61 71 71 66 30 8 7 3 3 30 17 41 98 100 100
32 27 31 42 80 72 100 96 89 100 97 98 96 79 94 98 99 95 98 83 92 93 88 85 78 73 74 69 69 76 70 50 11 8 5 2 7 26 42 56 100 100 100
32 21 28 34 53 58 95 95 96 100 99 99 88 81 85 98 92 88 93 83 100 93 92 86 75 75 72 75 81 72 65 25 8 8 3 2 14 8 63 92 96 98 100
35 20 24 32 42 51 92 98 96 100 100 99 98 88 90 96 95 97 88 87 100 94 93 81 80 73 71 97 82 70 52 18 9 6 3 2 15 7 88 98 99 98 98
42 26 25 29 30 40 62 100 89 100 100 100 99 92 90 99 100 96 80 96 95 94 88 88 88 70 86 97 78 69 43 11 9 4 2 2 13 6 89 92 97 97 97
37 25 23 29 32 33 56 100 87 99 100 98 98 99 100 97 84 82 88 100 90 96 96 94 79 78 100 96 80 68 31 9 7 3 2 2 12 8 81 92 97 100 98
21 20 31 33 25 29 85 96 85 99 100 100 100 93 88 86 81 87 97 96 97 99 98 88 78 96 95 92 80 62 13 9 6 3 2 2 14 9 67 94 90 97 98
32 95 96 32 20 21 96 93 92 85 94 75 90 84 75 66 74 93 97 98 99 98 96 89 93 91 94 89 81 44 9 10 6 3 2 2 9 11 69 85 80 97 98
100 100 80 74 44 65 100 85 62 66 83 100 94 70 61 71 93 97 98 99 100 98 95 90 88 86 92 85 60 21 10 11 6 3 2 2 4 19 26 77 82 95 96
100 100 100 90 87 100 100 98 99 94 98 90 99 100 100 98 98 98 99 100 100 96 81 93 93 88 85 85 23 9 11 12 7 4 2 2 3 23 12 83 88 94 97
100 100 100 100 100 100 100 100 98 94 87 100 99 98 96 98 99 98 100 100 94 75 83 97 93 91 86 74 3 8 11 10 8 5 3 2 3 9 15 68 89 95 98
100 100 100 100 100 100 100 100 100 76 92 97 98 98 99 100 99 99 89 76 71 88 100 99 95 95 90 54 9 10 12 9 9 6 3 2 3 4 18 42 77 91 97
100 100 100 100 100 100 100 100 94 100 100 100 97 89 87 95 99 91 86 89 99 99 96 96 96 92 85 63 26 14 13 10 10 9 4 2 2 3 8 11 46 61 94
100 99 100 100 100 100 100 99 99 98 99 100 99 98 99 100 94 97 99 100 100 100 100 100 97 87 78 50 13 7 6 8 11 10 8 4 2 2 5 16 14 65 88
100 100 100 100 99 99 98 96 94 96 97 99 99 100 94 98 99 98 96 97 95 100 100 82 80 39 13 5 4 4 6 8 7 4 3 4 4 3 2 16 17 28 61
100 100 100 100 99 98 98 97 98 98 96 98 98 99 99 98 90 80 81 89 83 35 38 47 13 5 4 5 5 6 7 9 8 4 3 2 2 2 2 12 39 29 41
Wind_Speed
69 72 80 78 94 95 88 85 75 72 72 69 63 62 64 58 52 51 51 50 48 46 44 43 42 42 41 40 41 41 43 45 45 47 50 51 52 52 53 58 62 69 74
49 49 59 79 84 89 98 93 81 82 78 74 69 61 65 59 50 50 50 49 47 46 43 42 41 41 40 41 41 41 43 44 46 49 50 51 52 54 58 63 69 74 80
48 48 43 66 86 81 70 71 88 80 77 80 75 62 64 59 50 48 48 49 46 44 42 42 40 39 40 40 40 41 43 44 48 50 49 50 53 58 62 68 73 79 68
45 43 45 44 75 85 66 63 68 66 65 72 71 64 65 58 51 48 48 47 44 43 41 39 38 38 39 39 40 41 43 45 49 49 49 50 55 61 68 73 78 68 56
45 43 40 41 42 67 73 53 64 65 61 63 63 63 65 57 51 49 46 44 43 41 39 38 37 37 38 38 39 41 43 46 47 47 47 52 57 64 72 78 71 56 43
39 37 40 36 36 42 77 49 52 62 58 61 61 60 61 54 50 49 44 43 41 38 37 36 37 37 38 37 39 41 44 45 46 46 49 53 60 67 75 71 59 49 46
39 33 39 32 32 33 75 58 30 59 56 56 54 53 54 51 50 47 43 40 37 33 34 36 35 35 35 36 39 41 42 43 43 45 48 55 62 70 72 59 50 53 49
37 36 39 35 32 27 45 73 37 50 56 56 52 49 50 50 49 44 40 35 32 32 33 33 33 34 34 36 38 41 40 41 43 46 49 58 66 71 64 52 54 49 37
40 38 38 40 25 25 33 72 55 39 58 56 55 51 50 51 46 42 37 32 29 30 30 30 31 31 33 35 38 38 39 40 42 44 51 60 68 67 56 53 32 19 29
41 39 38 36 30 20 24 60 54 47 61 56 55 51 53 51 46 42 35 32 27 27 27 28 29 31 33 34 35 35 36 38 39 44 53 62 68 53 52 30 20 15 30
39 40 38 34 28 21 21 47 43 43 52 62 57 55 55 52 48 41 35 28 25 25 26 26 28 30 32 32 32 33 33 34 37 42 52 61 59 51 29 6 24 24 11
37 41 37 34 28 19 21 38 55 47 55 61 57 59 58 54 48 42 34 27 28 27 26 26 29 29 29 30 31 30 30 31 33 41 49 59 50 34 10 8 28 12 18
34 41 39 33 28 22 18 37 58 39 36 54 62 66 59 55 48 43 32 35 31 27 26 28 28 27 26 28 28 24 25 27 32 41 47 55 45 21 3 10 27 23 25
33 36 39 33 28 23 21 31 40 33 31 56 68 66 57 53 51 42 41 38 28 28 28 28 28 26 24 24 22 21 22 26 31 39 45 49 39 15 3 11 15 38 36
31 31 35 32 32 23 23 31 32 34 33 50 67 60 58 54 48 49 40 36 26 30 28 29 28 26 22 21 18 18 19 24 29 35 43 41 32 5 13 21 26 29 34
25 28 32 32 31 25 25 35 41 43 37 42 58 59 52 51 46 46 40 29 31 26 29 28 26 23 20 19 16 16 16 21 26 31 39 33 25 2 23 27 15 23 19
23 26 27 32 28 22 35 39 43 42 38 43 48 49 49 50 47 41 34 32 24 23 28 25 24 21 20 18 15 13 14 19 24 28 35 27 18 4 27 26 18 27 25
20 22 27 29 31 26 42 40 43 35 40 37 53 53 52 50 47 40 29 20 20 25 24 22 23 20 19 15 14 11 12 17 22 25 30 21 11 6 29 36 33 31 24
15 24 33 23 30 38 43 41 36 35 39 42 52 54 49 49 44 32 20 19 23 25 23 23 23 22 19 15 13 11 13 16 19 23 27 18 9 6 27 42 39 32 32
10 11 23 29 40 40 39 42 43 37 34 42 46 55 53 51 39 24 20 22 24 23 22 20 20 24 18 16 13 12 14 15 18 20 24 18 9 10 24 48 45 36 29
9 25 28 34 37 36 42 45 44 38 31 33 45 58 51 34 24 21 21 22 23 24 21 20 20 20 17 17 13 13 13 13 16 18 22 14 9 11 21 46 49 41 21
18 21 24 30 34 40 41 44 38 30 32 34 39 41 31 22 20 20 24 25 24 22 21 20 19 17 17 19 19 17 14 14 17 17 19 16 11 10 21 43 56 51 34
24 24 22 25 39 39 45 39 32 27 29 29 27 23 21 19 19 22 22 21 21 20 17 15 16 17 18 21 23 23 21 20 19 20 20 16 12 16 22 38 57 61 53
24 30 29 29 34 36 36 39 36 29 28 24 19 21 20 22 22 20 18 17 16 15 15 16 17 19 19 20 19 19 20 23 24 25 24 22 19 20 25 37 54 69 65
21 22 26 30 32 36 37 34 29 29 25 23 25 21 20 21 19 17 15 14 14 15 17 19 19 14 15 16 18 19 23 26 27 28 29 28 28 27 30 41 50 63 70
20 24 27 26 29 29 27 25 25 26 27 27 23 21 19 16 14 15 16 14 12 13 13 11 11 13 14 18 21 24 28 31 33 35 38 40 37 34 39 50 53 58 68
Wind_Direction
274 259 254 241 239 239 242 243 246 246 247 245 245 247 249 249 252 253 252 252 253 252 254 259 267 271 274 275 278 280 282 284 287 289 291 293 294 294 291 292 294 294 296
285 281 264 240 237 241 242 239 236 238 240 240 241 239 245 246 247 250 251 251 249 251 255 261 266 269 273 276 279 281 283 285 290 292 295 296 297 294 294 299 298 299 303
289 284 283 251 235 233 234 241 243 239 240 236 238 233 239 242 243 245 245 246 247 251 256 261 267 270 275 277 280 283 285 289 291 294 298 299 297 296 301 301 302 304 306
283 288 283 285 249 227 227 236 237 233 229 234 232 230 234 236 238 240 238 242 248 253 256 261 267 271 274 277 280 283 286 290 294 298 301 299 299 303 305 304 306 309 305
283 290 293 286 272 258 230 225 235 234 225 225 225 224 229 230 233 232 234 241 244 250 256 264 269 271 274 278 281 284 289 292 298 301 302 301 306 308 308 309 312 308 300
281 289 292 287 277 266 235 223 217 234 222 222 217 220 222 225 227 227 229 234 241 249 257 264 267 271 275 279 283 287 290 298 302 305 302 309 310 310 312 315 312 305 301
286 286 290 286 268 259 245 224 207 226 222 219 218 218 218 218 219 222 224 230 241 249 257 264 269 273 276 280 284 288 294 300 304 303 308 313 312 315 317 317 311 309 306
295 288 291 293 276 246 245 222 218 213 223 213 213 210 211 210 210 213 222 229 238 249 257 265 270 273 276 279 284 289 298 303 305 306 315 316 319 320 323 319 319 320 323
287 285 287 291 282 279 233 227 225 201 218 209 208 205 207 204 202 210 216 226 238 252 261 266 268 272 275 280 286 294 301 305 307 313 318 321 323 327 326 327 344 5 331
281 281 279 280 281 280 244 230 220 201 215 203 205 202 199 198 201 207 214 227 240 252 259 263 267 271 276 282 288 297 302 307 311 317 323 325 328 331 329 342 9 335 9
282 275 272 274 275 278 252 229 204 208 211 208 200 196 196 199 204 208 216 227 240 253 261 264 267 272 277 283 290 298 304 308 315 321 326 329 332 334 345 51 16 29 41
284 270 264 267 270 264 257 224 201 196 208 198 196 195 197 200 205 211 217 230 241 252 262 264 265 271 276 284 292 298 306 310 320 325 330 333 336 345 47 99 60 102 95
284 267 258 261 259 254 250 220 208 184 197 200 199 199 198 205 210 218 217 231 238 250 260 260 264 270 275 284 291 300 305 315 324 332 332 335 344 2 144 107 87 106 99
279 264 253 252 250 248 238 221 213 202 199 196 191 196 194 206 213 218 223 231 236 251 255 258 262 265 268 284 291 299 308 318 326 333 333 337 351 358 183 115 59 120 114
274 257 243 244 246 229 232 211 215 191 195 191 187 194 195 206 212 220 226 232 241 248 253 257 260 260 268 283 291 297 313 321 332 333 334 340 353 357 184 155 104 113 122
267 255 244 240 235 222 223 193 205 199 180 199 192 187 191 200 213 222 228 228 240 246 256 259 251 258 264 284 289 295 315 326 334 334 338 341 354 280 190 158 93 107 107
257 252 242 237 223 216 202 186 199 191 178 198 192 190 197 209 217 226 222 229 236 251 258 246 251 256 273 280 279 293 309 325 331 335 340 342 345 328 192 180 161 148 120
254 255 257 240 240 225 189 178 189 192 187 197 203 201 207 216 219 220 223 230 240 249 249 250 254 258 278 272 267 288 300 320 328 338 341 339 337 285 208 185 172 164 136
251 252 249 219 192 184 167 172 181 185 193 202 202 206 211 216 221 220 224 232 244 251 255 257 250 256 268 258 257 273 284 311 322 338 341 335 315 251 217 206 188 176 156
265 214 171 165 163 154 162 166 168 173 189 204 210 206 211 219 216 217 226 236 245 249 250 251 249 261 252 244 246 260 279 302 312 337 344 332 305 244 214 209 201 187 158
91 160 167 169 161 161 163 170 179 187 193 210 214 208 214 211 209 219 228 238 237 246 250 250 248 244 249 239 238 257 282 300 307 330 341 331 305 241 215 216 200 186 156
116 156 166 170 166 154 165 170 170 190 192 191 204 206 203 202 211 221 229 235 239 243 242 240 243 249 252 234 242 260 288 291 299 311 326 331 291 256 219 216 215 203 173
108 117 131 140 146 153 162 163 159 165 172 165 165 176 189 199 221 226 233 233 234 234 237 243 250 252 248 242 251 266 276 281 294 301 310 317 300 262 224 216 218 218 206
119 118 121 134 147 151 159 165 169 179 189 196 209 200 211 221 229 229 225 227 227 233 242 251 250 248 244 248 261 267 274 284 290 293 288 291 296 268 237 218 214 218 218
124 128 129 136 151 166 171 174 179 194 200 215 203 216 228 223 222 227 234 231 234 244 252 240 236 233 251 264 271 279 283 287 287 286 287 282 280 273 248 224 213 217 219
139 142 142 142 143 145 154 163 179 189 198 207 210 210 207 208 217 236 232 231 215 194 207 222 244 258 270 275 280 284 288 288 288 290 289 281 272 255 236 220 214 210 218